Location: Unspecified
(0.0000°N, 0.0000°E)
Time: 08:22:15
(UTC+00:00)

Transit 4A - Pass Details

Date: 06 October 2023
Orbit: 864 x 979 km, 66.8° (Epoch: 05 December)

Event Time Altitude Azimuth Distance (km) Brightness Sun altitude
Rises 07:32:50 0° 183° (S) 3,540 11.0 26.0°
Reaches altitude 10° 07:35:32 10° 174° (S) 2,614 10.5 26.7°
Maximum altitude 07:41:03 36° 109° (ESE) 1,446 11.0 28.1°
Drops below altitude 10° 07:46:41 10° 45° (NE) 2,676 10.9 29.5°
Sets 07:49:27 0° 36° (NE) 3,634 11.4 30.2°
